Location: Koussan�
(15.2012°N, 12.5548°W)
Time: 12:16:06
(UTC+00:00)

Cosmos 1703 - Pass Details

Date: 20 October 2020
Orbit: 525 x 538 km, 82.5° (Epoch: 26 November)

Event Time Altitude Azimuth Distance (km) Brightness Sun altitude
Rises 18:59:33 0° 2° (N) 2,672 6.7 -8.7°
Reaches altitude 10° 19:01:44 10° 8° (N) 1,783 5.8 -9.2°
Maximum altitude 19:05:34 52° 85° (E) 665 3.4 -10.1°
Drops below altitude 10° 19:09:24 10° 162° (SSE) 1,787 5.8 -11.0°
Sets 19:11:35 0° 167° (SSE) 2,678 6.8 -11.5°
